Syracuse, NY

7:51 AM EST on February 12, 2016 (GMT -0500)
Syracuse Hancock International

Weather History for KSYR - May, 2013

Change the Weather History Date:

Tuesday, May 14, 2013

  Actual Average Record
Temperature  
Mean Temperature 46 °F 57 °F  
Max Temperature 57 °F 68 °F 87 °F (1942)
Min Temperature 34 °F 46 °F 30 °F (1939)
Degree Days  
Heating Degree Days 19 9  
Month to date heating degree days 92 146  
Since 1 July heating degree days 5989 6481  
Cooling Degree Days 0 1  
Month to date cooling degree days 1 4  
Year to date cooling degree days 1 8  
Moisture  
Dew Point 27 °F    
Average Humidity 53    
Maximum Humidity 82    
Minimum Humidity 24    
Precipitation  
Precipitation 0.00 in 0.10 in 1.00 in (1905)
Month to date precipitation 0.67 1.39  
Year to date precipitation 10.70 12.10  
Snow  
Snow 0.00 in 0.00 in 0.00 in (2002)
Month to date snowfall T 0.1  
Since 1 July snowfall 115.4 123.8  
Snow Depth 0.00 in    
Sea Level Pressure  
Sea Level Pressure 30.09 in    
Wind  
Wind Speed 7 mph (WSW)    
Max Wind Speed 14 mph    
Max Gust Speed 21 mph    
Visibility 10 miles    
Events      
T = Trace of Precipitation, MM = Missing Value Source: NWS Daily Summary

Daily Weather History Graph

Daily Weather History Graph

Search for Another Location

Airport or City:

Trip Planner

Search our weather history database for the weather conditions in past years. The results will help you decide how hot, cold, wet, or windy it might be!

Date:

Astronomy

May. 14, 2013 Rise Set
Actual Time 5:41 AM EDT 8:20 PM EDT
Civil Twilight 5:09 AM EDT 8:53 PM EDT
Nautical Twilight 4:28 AM EDT 9:34 PM EDT
Astronomical Twilight 3:41 AM EDT 10:21 PM EDT
Moon 9:19 AM EDT (5/14) No Moon Set
Length of Visible Light 15h 44m
Length of Day
14h 38m
Waxing Crescent, 19% of the Moon is Illuminated
May 14
Waxing Crescent
May 18
First Quarter
May 25
Full
May 31
Last Quarter
Jun 8
New

Hourly Weather History & Observations

Time (EDT) Temp. Windchill Dew Point Humidity Pressure Visibility Wind Dir Wind Speed Gust Speed Precip Events Conditions
12:54 AM 39.9 °F 33.4 °F 30.9 °F 70% 30.11 in 10.0 mi WSW 10.4 mph - N/A   Partly Cloudy
1:54 AM 39.0 °F 32.8 °F 30.9 °F 73% 30.11 in 10.0 mi WSW 9.2 mph - N/A   Partly Cloudy
2:54 AM 37.9 °F 31.5 °F 30.9 °F 76% 30.12 in 10.0 mi WSW 9.2 mph - N/A   Clear
3:54 AM 37.0 °F 31.0 °F 30.0 °F 76% 30.12 in 10.0 mi WSW 8.1 mph - N/A   Clear
4:54 AM 35.1 °F 30.1 °F 30.0 °F 82% 30.12 in 10.0 mi WSW 5.8 mph - N/A   Clear
5:54 AM 34.0 °F 28.0 °F 28.9 °F 82% 30.13 in 10.0 mi WSW 6.9 mph - N/A   Scattered Clouds
6:54 AM 39.0 °F 33.4 °F 30.9 °F 73% 30.14 in 10.0 mi WSW 8.1 mph - N/A   Scattered Clouds
7:54 AM 42.1 °F 36.6 °F 30.9 °F 65% 30.15 in 10.0 mi WSW 9.2 mph - N/A   Scattered Clouds
8:54 AM 45.0 °F 39.7 °F 28.9 °F 53% 30.15 in 10.0 mi WSW 10.4 mph - N/A   Scattered Clouds
9:54 AM 48.0 °F - 25.0 °F 41% 30.13 in 10.0 mi West 6.9 mph - N/A   Scattered Clouds
10:54 AM 48.9 °F - 25.0 °F 39% 30.13 in 10.0 mi Variable 3.5 mph - N/A   Mostly Cloudy
11:54 AM 51.1 °F - 26.1 °F 38% 30.14 in 10.0 mi West 11.5 mph - N/A   Mostly Cloudy
12:54 PM 52.0 °F - 26.1 °F 37% 30.12 in 10.0 mi Variable 5.8 mph - N/A   Mostly Cloudy
1:54 PM 54.0 °F - 27.0 °F 35% 30.10 in 10.0 mi ESE 10.4 mph - N/A   Mostly Cloudy
2:54 PM 55.0 °F - 26.1 °F 33% 30.09 in 10.0 mi SSW 8.1 mph - N/A   Mostly Cloudy
3:54 PM 55.0 °F - 19.9 °F 25% 30.06 in 10.0 mi WSW 10.4 mph - N/A   Mostly Cloudy
4:54 PM 55.0 °F - 21.9 °F 28% 30.05 in 10.0 mi NW 8.1 mph - N/A   Mostly Cloudy
5:54 PM 55.0 °F - 24.1 °F 30% 30.04 in 10.0 mi SW 4.6 mph - N/A   Partly Cloudy
6:54 PM 55.0 °F - 21.9 °F 28% 30.02 in 10.0 mi Calm Calm - N/A   Partly Cloudy
7:54 PM 50.0 °F - 23.0 °F 35% 30.02 in 10.0 mi NNE 4.6 mph - N/A   Scattered Clouds
8:54 PM 46.9 °F - 25.0 °F 42% 30.02 in 10.0 mi NE 4.6 mph - N/A   Scattered Clouds
9:54 PM 45.0 °F 43.5 °F 28.0 °F 52% 30.03 in 10.0 mi East 3.5 mph - N/A   Partly Cloudy
10:54 PM 42.1 °F 39.2 °F 28.0 °F 58% 30.02 in 10.0 mi East 4.6 mph - N/A   Partly Cloudy
11:54 PM 39.9 °F 36.7 °F 28.9 °F 65% 30.01 in 10.0 mi ESE 4.6 mph - N/A   Partly Cloudy